Temperature
17 17 17 17 17 17 17 17 17 17 17 17 17 17 17 17 17 17 17 17 17 17 17 17 17 17 18 18 18 18 18 18 18 18 18 18 18 18 18 18 18 18 18
17 17 17 17 17 17 17 17 17 17 17 17 17 17 17 17 17 17 17 17 17 17 17 17 17 17 18 18 18 18 18 18 18 18 18 17 17 18 18 18 18 18 18
17 17 17 17 17 17 17 17 17 17 17 17 17 17 17 17 17 17 17 17 17 17 17 17 17 17 17 17 17 17 17 17 17 18 17 17 17 17 18 18 17 18 18
17 17 17 17 17 17 17 17 17 17 17 17 17 17 17 17 17 17 17 17 17 17 17 17 17 17 17 17 17 17 17 17 17 17 17 17 17 17 17 17 17 17 17
17 17 17 17 17 17 17 17 17 17 17 17 17 17 17 17 17 17 17 17 17 17 17 17 17 17 17 17 17 17 17 17 17 17 17 17 17 17 17 17 17 17 17
17 17 17 17 17 17 17 17 16 16 16 16 17 17 17 17 17 17 17 17 17 17 17 17 17 17 17 17 17 17 17 17 17 17 17 17 17 17 17 17 17 17 17
17 17 17 17 17 17 17 16 16 16 16 16 16 16 16 16 16 16 16 16 17 17 17 17 17 17 17 16 17 17 17 17 17 17 17 17 17 17 17 17 17 17 17
17 17 17 17 16 16 16 16 16 16 16 16 16 16 16 16 16 16 16 16 16 16 16 16 16 16 16 16 16 16 16 16 16 17 17 17 17 17 17 17 17 17 17
17 17 17 17 16 16 16 16 16 16 16 16 16 16 16 16 16 16 16 16 16 16 16 16 16 16 16 16 16 16 16 16 16 16 16 16 16 16 16 16 16 16 16
17 17 17 17 16 16 16 16 16 16 16 16 16 16 16 16 16 16 16 16 16 16 16 16 16 16 16 16 16 16 16 16 16 16 16 16 16 16 16 16 16 16 16
17 17 17 16 16 16 16 16 16 16 16 16 16 16 16 16 16 16 16 16 16 16 16 16 16 16 16 16 16 16 16 16 16 16 16 16 16 16 16 16 16 16 16
17 17 17 16 16 16 16 16 16 16 16 16 16 16 16 16 16 16 16 16 16 16 16 16 16 16 16 16 16 16 16 16 16 16 16 16 16 16 16 16 16 16 16
17 17 17 16 16 16 16 16 16 16 16 16 15 15 15 15 16 16 15 15 15 15 15 15 15 15 15 15 15 15 15 15 15 15 15 16 16 16 16 16 16 16 16
17 17 17 16 16 16 16 16 16 16 16 15 15 15 15 15 15 15 15 15 15 15 15 15 15 15 15 15 15 15 15 15 15 15 15 15 15 15 15 15 16 16 16
17 17 17 16 16 16 16 16 16 16 16 15 15 15 15 15 15 15 15 15 15 15 15 15 15 15 15 15 15 15 15 15 15 15 15 15 15 15 15 15 15 15 15
17 17 17 16 16 16 16 16 16 16 15 15 15 15 15 15 15 15 15 15 15 15 15 14 14 15 15 15 15 15 15 15 15 15 15 15 15 15 15 15 15 15 15
17 17 17 16 16 16 16 16 16 15 15 15 15 15 15 15 15 15 15 15 14 14 14 14 14 14 14 14 14 14 14 14 15 15 15 15 15 15 15 15 15 15 15
17 17 16 16 16 16 16 16 16 15 15 15 15 15 15 15 15 15 15 14 14 14 14 14 14 14 14 14 14 14 14 14 14 14 14 14 14 15 15 14 14 15 14
17 16 16 16 16 16 16 16 15 15 15 15 15 15 15 15 14 14 14 14 14 14 14 14 14 14 14 14 14 14 14 14 14 14 14 14 14 14 14 14 14 14 14
16 16 16 16 16 16 16 16 15 15 15 15 15 15 14 14 14 14 14 14 14 14 14 14 14 14 14 14 13 13 13 13 14 14 14 14 14 14 14 14 14 14 14
16 16 16 16 16 16 16 15 15 15 15 14 14 14 14 14 14 14 14 14 14 14 14 14 13 13 13 13 13 13 13 13 13 13 13 14 14 14 14 14 14 14 14
16 16 16 16 15 15 15 15 15 15 14 14 14 14 14 14 14 14 14 14 13 13 13 13 13 13 13 13 13 13 13 13 13 13 13 13 13 13 13 13 13 13 13
16 16 15 15 15 15 15 15 14 14 14 14 14 14 14 13 13 13 13 13 13 13 13 13 13 13 13 13 13 13 12 12 12 12 12 13 13 13 13 13 13 13 13
16 15 15 15 15 15 14 14 14 14 14 14 14 13 13 13 13 13 13 13 13 13 13 13 13 13 13 13 12 12 12 12 12 12 12 12 12 12 12 13 13 13 13
15 15 15 15 14 14 14 14 14 13 13 13 13 13 13 13 13 13 13 13 13 13 13 13 12 12 12 12 12 12 12 12 12 11 11 12 12 12 12 12 12 12 13
15 15 15 14 14 14 14 13 13 13 13 13 13 13 13 12 12 12 12 12 12 12 12 12 12 12 12 12 12 12 12 12 12 11 11 11 11 11 11 12 12 12 12
Wind_Speed
2 3 2 4 5 5 6 7 8 9 9 9 9 9 10 10 10 10 10 10 10 10 11 10 10 10 11 10 10 10 10 9 9 9 9 9 8 7 7 7 7 6 7
1 1 2 4 5 6 7 8 8 9 9 9 9 9 10 10 9 9 9 10 10 10 10 10 11 11 11 11 11 11 10 10 10 10 9 8 8 7 7 7 6 5 6
1 2 3 5 6 7 8 9 9 9 9 10 10 10 10 9 9 9 9 10 10 10 10 11 11 11 11 11 11 11 10 10 10 10 9 7 7 7 7 7 6 6 6
2 3 3 5 7 8 9 9 9 9 10 10 10 10 9 9 9 9 10 10 10 11 11 11 11 11 11 10 10 10 10 10 10 9 8 7 6 7 6 6 6 6 6
3 3 4 6 7 8 8 9 9 9 9 9 9 10 9 9 9 9 10 10 10 11 11 11 11 10 10 10 10 10 10 10 10 8 7 6 5 5 6 6 5 5 5
3 3 3 6 7 7 7 8 8 9 9 9 9 9 9 9 9 9 9 10 10 10 10 10 10 11 10 10 10 10 10 9 8 7 5 5 4 4 5 5 5 4 4
2 3 3 5 6 6 6 7 7 7 8 8 9 9 9 9 9 9 9 9 9 9 10 10 10 10 11 10 10 10 9 8 8 6 5 4 4 5 5 5 5 5 4
3 3 4 4 5 5 6 6 6 6 7 7 8 8 8 8 9 9 9 9 9 9 9 10 10 11 11 10 10 10 9 7 6 5 5 4 5 6 5 6 6 5 5
4 4 4 4 4 4 5 5 5 6 6 7 7 7 7 8 8 8 8 9 9 9 9 9 10 10 10 10 10 10 10 8 6 5 4 4 6 6 6 6 6 6 5
4 3 3 4 4 4 4 4 4 5 5 6 6 6 7 7 7 8 8 8 9 9 9 9 10 10 11 11 11 11 10 9 7 6 5 5 6 6 6 6 6 6 6
2 2 2 3 3 3 3 3 4 4 5 5 5 6 7 7 7 7 8 8 8 9 9 9 9 11 11 11 11 11 10 8 7 5 5 5 5 6 6 6 6 6 6
0 1 1 1 2 3 3 4 5 4 5 6 5 6 6 6 6 7 8 8 8 8 8 9 10 10 9 8 9 9 7 7 6 6 6 6 6 6 6 6 6 6 5
2 1 0 0 1 2 2 3 3 4 4 4 4 4 5 5 5 6 6 7 7 7 7 8 8 8 7 7 6 7 7 6 6 6 7 7 7 6 6 6 6 6 6
1 1 0 0 1 1 2 2 3 3 3 3 3 3 3 3 3 4 4 4 5 5 5 5 5 6 7 7 6 6 6 6 6 6 7 9 7 7 6 6 6 6 6
0 1 1 1 1 1 1 1 2 2 2 2 3 3 3 2 2 2 3 4 4 4 4 3 4 4 4 5 5 6 5 6 7 7 7 10 10 8 6 6 5 5 5
1 2 1 1 1 2 1 1 1 1 2 3 3 2 3 3 2 2 2 3 3 3 3 3 3 3 3 3 4 5 5 6 6 7 7 8 10 9 8 6 6 6 5
2 1 1 1 2 2 1 1 2 2 2 2 2 2 3 3 3 3 2 2 2 3 4 4 4 4 3 4 4 4 4 5 5 6 7 7 8 9 9 8 7 6 5
0 1 1 1 2 2 1 2 2 3 3 2 2 2 3 3 3 3 2 1 2 3 3 2 2 3 3 3 3 3 4 4 5 5 6 6 7 6 8 8 7 7 6
1 1 1 2 2 2 2 3 3 4 3 2 3 3 2 3 3 3 2 2 3 3 2 2 2 2 2 3 2 3 3 3 4 5 5 6 6 6 6 8 8 8 7
2 2 2 3 3 3 3 3 3 4 3 4 3 3 3 3 3 3 2 2 3 3 2 2 3 3 2 2 3 3 3 3 3 4 4 5 6 6 6 7 7 7 8
3 3 3 3 3 3 2 2 2 2 2 2 3 4 4 3 3 3 2 2 2 2 2 3 2 3 2 2 3 3 3 3 3 3 4 4 5 6 6 7 7 6 6
3 3 3 3 3 2 1 1 2 2 1 1 2 4 4 4 4 4 3 2 2 2 3 2 2 2 1 2 2 2 2 4 4 4 3 3 4 5 6 6 7 6 6
2 2 2 2 3 3 3 3 3 3 3 3 2 2 3 4 4 4 3 3 2 2 2 2 2 2 1 1 1 2 2 1 2 3 3 3 4 4 4 5 6 6 6
1 2 3 3 3 3 3 4 4 3 1 0 0 1 2 4 4 4 4 3 2 2 2 1 2 2 3 1 1 1 1 2 1 1 3 3 4 4 4 4 5 5 6
2 3 3 3 4 4 4 3 4 3 1 1 2 3 3 3 4 4 3 3 2 1 1 1 1 2 2 2 1 1 1 2 2 1 1 3 3 3 3 3 4 4 6
3 3 3 4 3 3 3 3 4 3 2 3 3 2 2 2 2 3 2 2 1 1 1 1 2 2 1 2 2 2 2 2 1 1 1 1 2 2 3 3 3 4 4
Wind_Direction
298 307 2 76 76 73 77 73 76 77 76 74 72 73 76 76 74 75 76 76 76 79 81 82 84 90 91 95 98 100 98 98 99 98 96 96 102 106 112 112 111 104 110
245 328 72 83 79 78 78 82 81 78 77 74 72 73 73 73 73 73 77 78 77 79 81 80 79 86 88 93 94 93 92 92 92 89 86 86 90 95 105 112 112 109 110
91 55 84 80 79 78 78 82 82 81 79 74 70 72 73 73 72 74 78 79 78 78 81 80 81 80 84 90 92 89 91 90 89 84 75 67 77 91 101 105 109 112 112
101 73 85 86 83 82 81 80 80 81 78 74 71 72 72 73 74 75 77 77 76 76 77 80 82 83 83 86 90 89 90 88 84 78 68 61 67 87 97 101 104 108 112
70 65 90 93 90 87 83 79 78 80 77 76 74 73 73 74 75 76 79 79 76 74 75 77 78 80 83 85 86 87 88 87 83 73 65 63 65 88 96 97 98 100 105
69 59 81 94 92 88 86 81 79 79 78 77 77 74 74 72 72 74 79 80 77 74 76 77 77 77 80 81 82 84 87 86 79 70 63 66 69 82 88 90 96 99 102
90 58 64 89 88 88 88 84 82 81 78 77 77 76 75 73 71 71 76 79 78 76 76 78 77 76 78 80 78 79 80 81 76 64 58 67 80 83 85 88 95 98 98
94 64 55 77 81 81 84 83 83 84 83 82 80 77 76 74 72 69 71 76 78 78 76 76 77 76 76 78 76 76 75 71 65 56 52 64 80 82 83 80 82 87 91
74 60 45 44 51 59 66 72 77 85 89 86 83 79 76 72 70 67 68 72 76 76 75 75 76 75 75 75 75 72 70 63 57 49 50 63 77 79 76 76 79 79 79
61 52 35 37 42 38 35 48 66 78 90 89 81 76 69 63 60 59 61 65 69 71 73 75 75 71 70 69 70 69 64 56 48 43 42 59 69 73 70 69 74 76 76
53 32 28 28 36 36 31 38 52 66 72 71 63 64 60 50 47 45 53 63 64 67 70 72 73 68 66 65 68 66 58 50 43 36 37 54 64 68 68 68 69 72 73
22 356 25 23 30 39 40 46 49 55 61 62 56 52 56 55 47 45 47 53 58 61 64 66 64 59 57 56 57 60 55 46 40 30 36 46 60 66 69 68 67 69 69
219 237 338 15 29 51 48 51 53 52 56 59 59 53 57 55 48 43 41 39 44 50 53 56 53 50 52 54 53 54 51 47 40 31 30 41 55 65 66 66 70 71 71
201 225 252 117 58 56 62 55 58 54 50 52 57 62 70 60 53 47 46 41 45 50 56 54 54 50 51 51 54 56 49 45 39 28 29 36 44 56 60 61 67 68 69
277 265 243 175 157 90 64 53 63 50 51 55 56 61 89 89 80 64 55 47 47 55 61 57 59 53 49 47 52 57 49 45 41 34 28 33 35 39 46 53 57 59 59
263 273 268 203 172 138 135 100 75 67 63 65 63 67 96 106 97 82 67 55 50 58 70 76 72 64 51 53 47 49 46 45 41 34 33 29 31 33 36 40 44 47 48
252 265 278 219 161 144 152 132 89 80 83 72 69 77 92 106 110 101 89 68 51 63 79 80 72 66 60 54 45 40 45 42 42 36 36 34 29 30 32 34 38 39 36
51 22 358 79 112 131 131 107 86 79 80 70 71 77 88 101 109 101 99 87 76 79 85 86 76 68 59 54 45 33 35 37 38 36 37 34 30 25 23 28 32 33 31
119 103 64 69 86 109 110 89 81 70 64 59 62 66 76 88 106 105 104 95 97 89 83 92 75 88 85 67 57 41 28 27 23 34 36 34 29 25 20 20 23 23 22
87 89 79 70 75 90 87 79 68 58 45 47 51 51 62 76 93 97 96 88 98 94 73 70 78 69 84 78 68 46 25 19 26 28 28 34 30 26 23 22 20 15 17
68 77 75 72 64 77 75 85 83 64 35 35 43 47 56 71 90 95 92 87 92 103 108 99 90 80 58 58 67 35 17 25 31 25 26 35 30 26 28 28 24 19 15
85 78 75 76 71 70 73 92 110 100 72 55 35 44 49 64 77 91 90 96 101 102 95 92 97 88 60 54 93 79 14 0 10 20 19 28 21 29 29 27 28 23 17
92 95 96 79 75 63 64 73 70 62 48 34 22 25 27 51 68 75 90 99 95 108 125 118 115 119 129 30 64 118 126 242 323 352 13 24 19 24 17 22 25 20 19
120 91 84 84 76 65 74 88 95 98 103 133 40 39 32 47 60 69 84 95 99 99 117 136 107 116 137 152 41 46 111 151 145 338 345 360 13 19 8 14 18 24 27
109 95 84 82 72 66 71 88 95 82 76 46 49 55 41 33 43 54 73 86 96 103 126 114 93 96 127 150 149 116 76 56 76 144 298 339 355 358 359 8 22 26 25
91 89 87 87 69 64 74 76 87 90 80 72 49 46 36 28 27 34 64 69 82 97 128 145 138 125 135 133 131 125 131 136 154 151 202 291 327 330 349 7 15 19 18
Height
1516 1515 1514 1514 1513 1513 1513 1512 1512 1512 1512 1512 1512 1512 1512 1512 1512 1512 1512 1512 1512 1512 1512 1512 1512 1512 1513 1514 1514 1515 1516 1517 1518 1518 1520 1520 1521 1522 1523 1524 1525 1526 1527
1517 1516 1515 1515 1515 1514 1514 1514 1513 1513 1513 1513 1513 1513 1513 1513 1513 1513 1513 1513 1513 1514 1514 1513 1514 1514 1514 1515 1515 1516 1517 1518 1518 1519 1520 1521 1522 1523 1524 1524 1525 1526 1527
1518 1517 1517 1516 1516 1516 1515 1515 1515 1515 1515 1515 1515 1515 1515 1515 1515 1515 1515 1515 1515 1515 1515 1515 1515 1515 1516 1516 1517 1517 1518 1519 1520 1520 1521 1522 1523 1523 1524 1525 1526 1526 1527
1519 1519 1518 1518 1517 1517 1517 1516 1516 1516 1516 1516 1516 1516 1516 1516 1516 1516 1516 1517 1517 1517 1517 1517 1517 1517 1518 1518 1518 1519 1519 1520 1521 1521 1522 1523 1524 1524 1525 1525 1526 1527 1527
1520 1520 1519 1519 1519 1518 1518 1518 1518 1518 1517 1518 1518 1518 1518 1518 1518 1518 1518 1518 1518 1518 1518 1519 1519 1519 1519 1520 1520 1520 1521 1521 1522 1522 1523 1524 1524 1525 1525 1526 1526 1527 1527
1521 1521 1521 1520 1520 1520 1520 1519 1519 1519 1519 1519 1519 1519 1519 1519 1519 1519 1519 1520 1520 1520 1520 1520 1520 1521 1521 1521 1521 1522 1522 1523 1523 1524 1524 1525 1525 1526 1526 1526 1527 1527 1528
1522 1522 1522 1522 1522 1521 1521 1521 1521 1521 1521 1521 1521 1520 1520 1520 1521 1521 1521 1521 1521 1521 1522 1522 1522 1522 1522 1523 1523 1523 1524 1524 1524 1525 1525 1525 1526 1526 1527 1527 1527 1528 1528
1524 1524 1523 1523 1523 1523 1523 1523 1522 1522 1522 1522 1522 1522 1522 1522 1522 1522 1522 1522 1522 1522 1523 1523 1523 1524 1524 1524 1524 1525 1525 1525 1525 1525 1526 1526 1527 1527 1527 1528 1528 1528 1528
1525 1525 1525 1525 1524 1524 1524 1524 1524 1524 1524 1523 1523 1523 1523 1523 1523 1523 1523 1523 1524 1524 1524 1524 1525 1525 1525 1525 1526 1526 1526 1526 1526 1527 1527 1527 1528 1528 1528 1528 1528 1528 1528
1526 1526 1526 1526 1526 1525 1525 1525 1525 1525 1525 1525 1525 1524 1524 1524 1524 1524 1525 1525 1525 1525 1525 1525 1526 1526 1526 1527 1527 1527 1527 1528 1528 1528 1528 1528 1529 1528 1528 1528 1529 1529 1529
1527 1527 1527 1527 1527 1527 1526 1526 1526 1526 1526 1526 1526 1526 1526 1526 1526 1525 1526 1526 1526 1526 1526 1526 1527 1527 1527 1528 1528 1528 1529 1529 1529 1529 1529 1529 1529 1529 1529 1529 1529 1529 1529
1528 1528 1528 1528 1528 1527 1527 1527 1527 1527 1527 1527 1527 1527 1527 1527 1527 1527 1527 1527 1527 1527 1527 1528 1528 1528 1528 1529 1529 1529 1530 1530 1530 1530 1530 1530 1530 1529 1530 1529 1529 1529 1529
1529 1529 1529 1528 1528 1528 1528 1528 1528 1528 1528 1528 1528 1528 1528 1528 1528 1528 1528 1528 1528 1528 1528 1529 1529 1529 1529 1530 1530 1530 1530 1531 1531 1531 1531 1530 1530 1530 1530 1530 1530 1530 1529
1529 1529 1529 1529 1529 1529 1529 1529 1529 1529 1529 1529 1529 1529 1529 1529 1529 1529 1529 1529 1529 1529 1529 1530 1530 1530 1530 1531 1531 1531 1531 1531 1531 1531 1531 1531 1531 1531 1530 1530 1530 1530 1529
1529 1529 1529 1529 1529 1529 1529 1529 1529 1529 1530 1530 1530 1530 1530 1530 1530 1530 1530 1530 1530 1530 1530 1531 1531 1531 1531 1531 1531 1532 1532 1532 1532 1532 1532 1531 1531 1531 1531 1530 1530 1530 1529
1528 1529 1529 1529 1529 1529 1529 1529 1529 1530 1530 1530 1530 1530 1530 1530 1530 1530 1530 1530 1531 1531 1531 1531 1531 1532 1532 1532 1532 1532 1532 1532 1532 1532 1532 1532 1532 1531 1531 1531 1531 1530 1530
1528 1528 1528 1529 1529 1529 1529 1529 1530 1530 1530 1530 1530 1531 1531 1531 1531 1531 1531 1531 1531 1531 1532 1532 1532 1532 1532 1532 1532 1532 1532 1532 1533 1532 1532 1532 1532 1532 1531 1531 1531 1530 1530
1528 1528 1528 1528 1528 1528 1529 1529 1530 1530 1530 1530 1531 1531 1531 1531 1531 1531 1531 1531 1531 1532 1532 1532 1532 1532 1533 1533 1532 1532 1532 1532 1533 1533 1532 1532 1532 1532 1531 1531 1531 1530 1530
1527 1527 1527 1527 1527 1528 1528 1529 1529 1529 1530 1530 1530 1531 1531 1531 1531 1531 1531 1531 1531 1532 1532 1532 1532 1532 1532 1533 1532 1533 1533 1532 1532 1532 1532 1532 1532 1532 1531 1531 1531 1530 1530
1527 1527 1527 1527 1527 1527 1528 1528 1528 1529 1529 1529 1530 1530 1530 1531 1531 1531 1531 1531 1531 1531 1532 1532 1532 1532 1532 1532 1532 1532 1532 1532 1532 1532 1532 1532 1532 1532 1531 1531 1530 1530 1530
1526 1526 1526 1526 1526 1527 1527 1527 1527 1528 1528 1529 1529 1529 1530 1530 1530 1530 1530 1530 1530 1531 1531 1531 1532 1532 1532 1532 1532 1532 1532 1532 1532 1532 1532 1532 1532 1532 1531 1531 1530 1530 1529
1526 1526 1526 1526 1526 1526 1526 1527 1527 1527 1528 1528 1528 1529 1529 1529 1530 1530 1530 1530 1530 1530 1530 1531 1531 1531 1531 1532 1532 1531 1532 1533 1532 1532 1532 1532 1532 1531 1531 1531 1530 1530 1529
1525 1526 1526 1526 1526 1526 1526 1526 1526 1527 1527 1527 1528 1528 1528 1529 1529 1529 1529 1529 1530 1530 1530 1530 1530 1530 1530 1531 1531 1532 1532 1531 1532 1532 1532 1531 1531 1531 1530 1530 1530 1530 1529
1525 1526 1527 1527 1526 1526 1526 1526 1526 1526 1526 1526 1527 1527 1527 1528 1528 1528 1528 1528 1529 1529 1529 1529 1529 1530 1530 1530 1530 1531 1532 1531 1531 1531 1532 1531 1531 1530 1530 1529 1529 1529 1529
1525 1526 1527 1527 1527 1526 1526 1526 1525 1525 1526 1526 1526 1526 1526 1527 1527 1527 1527 1527 1528 1528 1528 1528 1528 1528 1529 1529 1529 1529 1530 1530 1530 1530 1530 1531 1530 1530 1529 1529 1528 1528 1528
1525 1526 1526 1526 1526 1526 1526 1525 1525 1525 1525 1525 1525 1525 1525 1526 1526 1526 1526 1526 1527 1527 1527 1527 1527 1527 1527 1528 1528 1528 1529 1529 1529 1529 1529 1529 1529 1529 1529 1528 1528 1527 1527